| time (UTC) | temp F | wind direction | speed MPH | gust MPH | rain 1hr in | rain 24hr in | rain mn in | humidity % | barometer mb |
| 20260507121529 | 54 | 359 | 3.0 | 8.0 | 0.00 | 0.00 | 0.00 | 45 | 1018.3 |
| 20260507120027 | 54 | 325 | 2.0 | 9.0 | 0.00 | 0.00 | 0.00 | 44 | 1018.3 |
| 20260507114529 | 53 | 290 | 3.0 | 8.0 | 0.00 | 0.00 | 0.00 | 47 | 1018.4 |
| 20260507113025 | 53 | 336 | 3.0 | 8.0 | 0.00 | 0.00 | 0.00 | 47 | 1018.4 |
| 20260507111522 | 53 | 295 | 2.0 | 6.0 | 0.00 | 0.00 | 0.00 | 48 | 1018.4 |
| 20260507110022 | 52 | 11 | 2.0 | 8.0 | 0.00 | 0.00 | 0.00 | 50 | 1018.4 |
| 20260507104519 | 52 | 41 | 2.0 | 5.0 | 0.00 | 0.00 | 0.00 | 48 | 1018.4 |
| 20260507103016 | 51 | 333 | 1.0 | 6.0 | 0.00 | 0.00 | 0.00 | 53 | 1018.5 |
| 20260507101516 | 50 | 337 | 1.0 | 6.0 | 0.00 | 0.00 | 0.00 | 51 | 1018.5 |
| 20260507100010 | 49 | 301 | 1.0 | 8.0 | 0.00 | 0.00 | 0.00 | 55 | 1018.5 |
| 20260507094509 | 48 | 320 | 2.0 | 6.0 | 0.00 | 0.00 | 0.00 | 56 | 1018.4 |
| 20260507093005 | 47 | 341 | 3.0 | 9.0 | 0.00 | 0.00 | 0.00 | 59 | 1018.4 |
| 20260507091506 | 47 | 295 | 4.0 | 9.0 | 0.00 | 0.00 | 0.00 | 61 | 1018.4 |
| 20260507090004 | 47 | 343 | 4.0 | 9.0 | 0.00 | 0.00 | 0.00 | 61 | 1018.4 |
| 20260507084503 | 47 | 354 | 2.0 | 8.0 | 0.00 | 0.00 | 0.00 | 62 | 1018.4 |
| 20260507083000 | 46 | 324 | 2.0 | 6.0 | 0.00 | 0.00 | 0.00 | 61 | 1018.4 |
| 20260507081603 | 45 | 333 | 2.0 | 9.0 | 0.00 | 0.00 | 0.00 | 62 | 1018.3 |
| 20260507080119 | 46 | 310 | 2.0 | 8.0 | 0.00 | 0.00 | 0.00 | 62 | 1018.2 |
| 20260507074600 | 46 | 95 | 1.0 | 4.0 | 0.00 | 0.00 | 0.00 | 64 | 1018.2 |
| 20260507073056 | 46 | 65 | 1.0 | 4.0 | 0.00 | 0.00 | 0.00 | 64 | 1018.3 |
| 20260507071552 | 45 | 324 | 0.0 | 4.0 | 0.00 | 0.00 | 0.00 | 70 | 1018.2 |
| 20260507070054 | 44 | 255 | 1.0 | 3.0 | 0.00 | 0.00 | 0.00 | 75 | 1018.1 |
| 20260507064617 | 43 | 278 | 1.0 | 3.0 | 0.00 | 0.00 | 0.00 | 75 | 1018.1 |
| 20260507063042 | 42 | 33 | 0.0 | 3.0 | 0.00 | 0.00 | 0.00 | 77 | 1018.0 |
| 20260507061540 | 41 | 312 | 1.0 | 3.0 | 0.00 | 0.00 | 0.00 | 79 | 1017.9 |
| 20260507060049 | 40 | 292 | 0.0 | 2.0 | 0.00 | 0.00 | 0.00 | 80 | 1017.9 |
| 20260507054543 | 40 | 299 | 0.0 | 2.0 | 0.00 | 0.00 | 0.00 | 81 | 1017.9 |
| 20260507053039 | 40 | 299 | 0.0 | 3.0 | 0.00 | 0.00 | 0.00 | 83 | 1017.9 |
| 20260507051542 | 39 | 295 | 0.0 | 3.0 | 0.00 | 0.00 | 0.00 | 85 | 1017.7 |
| 20260507050044 | 39 | 343 | 0.0 | 2.0 | 0.00 | 0.00 | 0.00 | 86 | 1017.7 |
| 20260507044535 | 38 | 341 | 0.0 | 2.0 | 0.00 | 0.00 | 0.00 | 86 | 1017.6 |
| 20260507043034 | 38 | 344 | 0.0 | 1.0 | 0.00 | 0.00 | 0.00 | 85 | 1017.7 |
| 20260507041533 | 38 | 344 | 0.0 | 3.0 | 0.00 | 0.00 | 0.00 | 85 | 1017.4 |
| 20260507040031 | 38 | 347 | 0.0 | 3.0 | 0.00 | 0.00 | 0.00 | 85 | 1017.5 |
| 20260507034530 | 38 | 9 | 0.0 | 2.0 | 0.00 | 0.00 | 0.00 | 85 | 1017.3 |
| 20260507033029 | 38 | 9 | 0.0 | 2.0 | 0.00 | 0.00 | 0.00 | 85 | 1017.4 |
| 20260507031528 | 38 | 359 | 1.0 | 4.0 | 0.00 | 0.00 | 0.00 | 85 | 1017.4 |
| 20260507030029 | 38 | 345 | 0.0 | 2.0 | 0.00 | 0.00 | 0.00 | 84 | 1017.3 |
| 20260507024527 | 38 | 345 | 1.0 | 2.0 | 0.00 | 0.00 | 0.00 | 84 | 1017.3 |
| 20260507023023 | 37 | 359 | 0.0 | 3.0 | 0.00 | 0.00 | 0.00 | 84 | 1017.1 |
| 20260507021521 | 37 | 359 | 0.0 | 2.0 | 0.00 | 0.00 | 0.00 | 83 | 1017.1 |
| 20260507020022 | 38 | 4 | 0.0 | 2.0 | 0.00 | 0.00 | 0.00 | 83 | 1017.0 |
| 20260507014519 | 38 | 4 | 0.0 | 2.0 | 0.00 | 0.00 | 0.00 | 82 | 1017.0 |
| 20260507013016 | 38 | 4 | 0.0 | 2.0 | 0.00 | 0.00 | 0.00 | 81 | 1016.9 |
| 20260507011516 | 38 | 4 | 0.0 | 3.0 | 0.00 | 0.00 | 0.00 | 81 | 1016.9 |
| 20260507010017 | 39 | 10 | 0.0 | 1.0 | 0.00 | 0.00 | 0.00 | 80 | 1016.9 |
| 20260507004512 | 39 | 10 | 0.0 | 3.0 | 0.00 | 0.00 | 0.00 | 80 | 1017.0 |
| 20260507003009 | 40 | 326 | 0.0 | 4.0 | 0.00 | 0.00 | 0.00 | 80 | 1016.9 |
| 20260507001513 | 40 | 328 | 1.0 | 5.0 | 0.00 | 0.00 | 0.00 | 80 | 1016.9 |
| 20260507000008 | 40 | 354 | 1.0 | 4.0 | 0.00 | 0.00 | 0.00 | 80 | 1016.8 |
| 20260506234509 | 40 | 347 | 2.0 | 4.0 | 0.00 | 0.00 | 0.00 | 80 | 1016.8 |
| 20260506233011 | 40 | 332 | 1.0 | 4.0 | 0.00 | 0.00 | 0.00 | 79 | 1016.8 |
| 20260506231506 | 40 | 339 | 2.0 | 5.0 | 0.00 | 0.00 | 0.00 | 79 | 1016.8 |
| 20260506230012 | 41 | 338 | 3.0 | 5.0 | 0.00 | 0.00 | 0.00 | 79 | 1016.7 |
| 20260506224500 | 41 | 341 | 2.0 | 5.0 | 0.00 | 0.00 | 0.00 | 78 | 1016.6 |
| 20260506223100 | 41 | 36 | 1.0 | 4.0 | 0.00 | 0.00 | 0.00 | 77 | 1016.6 |
| 20260506221624 | 41 | 316 | 3.0 | 9.0 | 0.00 | 0.00 | 0.00 | 77 | 1016.7 |
| 20260506220122 | 41 | 343 | 2.0 | 9.0 | 0.00 | 0.00 | 0.00 | 76 | 1016.5 |
| 20260506214556 | 41 | 339 | 1.0 | 6.0 | 0.00 | 0.00 | 0.00 | 76 | 1016.6 |
| 20260506213109 | 41 | 342 | 1.0 | 9.0 | 0.00 | 0.00 | 0.00 | 76 | 1016.6 |
| 20260506211559 | 41 | 335 | 3.0 | 9.0 | 0.00 | 0.00 | 0.00 | 75 | 1016.5 |
| 20260506210104 | 42 | 326 | 2.0 | 8.0 | 0.00 | 0.00 | 0.00 | 75 | 1016.5 |
| 20260506204605 | 42 | 332 | 3.0 | 9.0 | 0.00 | 0.00 | 0.00 | 74 | 1016.4 |
| 20260506203053 | 42 | 343 | 3.0 | 9.0 | 0.00 | 0.00 | 0.00 | 73 | 1016.4 |
| 20260506201553 | 42 | 306 | 3.0 | 9.0 | 0.00 | 0.00 | 0.00 | 73 | 1016.4 |
| 20260506200052 | 42 | 293 | 4.0 | 10.0 | 0.00 | 0.00 | 0.00 | 71 | 1016.5 |
| 20260506194552 | 42 | 324 | 4.0 | 11.0 | 0.00 | 0.00 | 0.00 | 69 | 1016.3 |
| 20260506193051 | 42 | 303 | 4.0 | 13.0 | 0.00 | 0.00 | 0.00 | 68 | 1016.4 |
| 20260506191552 | 43 | 318 | 3.0 | 11.0 | 0.00 | 0.00 | 0.00 | 67 | 1016.2 |
| 20260506190049 | 43 | 305 | 6.0 | 11.0 | 0.00 | 0.00 | 0.00 | 63 | 1016.2 |
| 20260506184559 | 44 | 293 | 6.0 | 13.0 | 0.00 | 0.00 | 0.00 | 62 | 1016.1 |
| 20260506183049 | 45 | 309 | 3.0 | 12.0 | 0.00 | 0.00 | 0.00 | 59 | 1016.0 |
| 20260506181549 | 45 | 332 | 4.0 | 12.0 | 0.00 | 0.00 | 0.00 | 60 | 1016.0 |
| 20260506180048 | 45 | 339 | 6.0 | 13.0 | 0.00 | 0.00 | 0.00 | 61 | 1015.9 |
| 20260506174547 | 46 | 291 | 4.0 | 17.0 | 0.00 | 0.00 | 0.00 | 63 | 1015.8 |
| 20260506173049 | 46 | 359 | 7.0 | 12.0 | 0.00 | 0.00 | 0.00 | 60 | 1015.8 |
| 20260506171556 | 46 | 359 | 5.0 | 16.0 | 0.00 | 0.00 | 0.00 | 60 | 1015.7 |
| 20260506170047 | 46 | 325 | 4.0 | 16.0 | 0.00 | 0.00 | 0.00 | 61 | 1015.6 |
| 20260506164546 | 47 | 4 | 5.0 | 13.0 | 0.00 | 0.00 | 0.00 | 59 | 1015.8 |
| 20260506163043 | 47 | 320 | 7.0 | 15.0 | 0.00 | 0.00 | 0.00 | 59 | 1015.7 |
| 20260506161544 | 47 | 303 | 7.0 | 15.0 | 0.00 | 0.00 | 0.00 | 60 | 1015.7 |
| 20260506160057 | 47 | 322 | 8.0 | 15.0 | 0.00 | 0.00 | 0.00 | 60 | 1015.6 |
| 20260506154542 | 48 | 301 | 8.0 | 15.0 | 0.00 | 0.00 | 0.00 | 57 | 1015.7 |
| 20260506153043 | 49 | 338 | 4.0 | 14.0 | 0.00 | 0.00 | 0.00 | 55 | 1015.7 |
| 20260506151543 | 49 | 321 | 6.0 | 12.0 | 0.00 | 0.00 | 0.00 | 55 | 1015.8 |
| 20260506150040 | 49 | 12 | 4.0 | 10.0 | 0.00 | 0.00 | 0.00 | 54 | 1015.8 |
| 20260506144553 | 48 | 342 | 6.0 | 14.0 | 0.00 | 0.00 | 0.00 | 55 | 1015.8 |
| 20260506143039 | 48 | 359 | 8.0 | 14.0 | 0.00 | 0.00 | 0.00 | 57 | 1015.9 |
| 20260506141539 | 49 | 315 | 8.0 | 13.0 | 0.00 | 0.00 | 0.00 | 57 | 1016.0 |
| 20260506140038 | 49 | 308 | 6.0 | 16.0 | 0.00 | 0.00 | 0.00 | 59 | 1016.0 |
| 20260506134537 | 49 | 311 | 5.0 | 14.0 | 0.00 | 0.00 | 0.00 | 58 | 1016.0 |
| 20260506133039 | 49 | 320 | 5.0 | 13.0 | 0.00 | 0.00 | 0.00 | 58 | 1016.1 |
| 20260506131542 | 48 | 344 | 3.0 | 12.0 | 0.00 | 0.00 | 0.00 | 59 | 1016.2 |
| 20260506130034 | 47 | 310 | 4.0 | 11.0 | 0.00 | 0.00 | 0.00 | 59 | 1016.2 |
| 20260506124534 | 47 | 299 | 4.0 | 10.0 | 0.00 | 0.00 | 0.00 | 61 | 1016.2 |
| 20260506123032 | 47 | 322 | 4.0 | 10.0 | 0.00 | 0.00 | 0.00 | 64 | 1016.2 |